SHIJIAN-17 (SJ-17) (41838 NORAD) Tracking and Keplerian Element Data

This shows tracking and keplerian element data for the satellite.

Feedback or suggestion? Click here.




ElementValue
Catalog41838
NameSHIJIAN-17 (SJ-17)
Epoch Orbit871
Epoch Day80.90327166
Epoch Year2019
RAAN97.4243
Inclination0.5637
Eccentricity0.0002505
Argument of Perigee295.5966
Mean Anonmoly205.4857
Mean Motion1.00271954
Decay Rate-2.89E-06
L11 41838U 16065A 19080.90327166 -.00000289 00000-0 00000-0 0 9994
L22 41838 0.5637 97.4243 0002505 295.5966 205.4857 1.00271954 8716

Live tracking and technical data element details for SHIJIAN-17 (SJ-17) (NORAD 41838). SHIJIAN-17 (SJ-17) can be tracked NOW for your location showing map with azimuth and elevation plus other details from your city location.

Track the satellite on the map from your city or location and see movement details for azimuth, elevation, latitude, longitude, range, height, and movement on the map or in text.







IsCatalogInMostPopularTable: catalog: 41838, numindb: 206
Update: records affected: 1



GetName: 41838 SHIJIAN-17 (SJ-17)

Hit Count: updated at: Sat, 23 Mar 2019 03:01:56 GMT